owner,sensor,date,latitude,longitude,vertical_datum,wind_speed,wind_to_direction,wind_speed_of_gust,qcFlag 
ADCP,ioos:station:wmo:42361:1,2016-09-01T00:30:00Z,27.5500,-92.4900,122.0,9.1,359.0,99.0,'11111222,11111222,11144222' 
ADCP,ioos:station:wmo:42361:1,2016-09-01T01:30:00Z,27.5500,-92.4900,122.0,9.2,360.0,99.0,'11111222,11144222,11144222' 
ADCP,ioos:station:wmo:42361:1,2016-09-01T02:30:00Z,27.5500,-92.4900,122.0,9.4,9.0,99.0,'11111222,11111222,11144222' 
ADCP,ioos:station:wmo:42361:1,2016-09-01T03:30:00Z,27.5500,-92.4900,122.0,8.5,16.0,99.0,'11111222,11111222,11144222' 
ADCP,ioos:station:wmo:42361:1,2016-09-01T04:30:00Z,27.5500,-92.4900,122.0,8.4,18.0,99.0,'11111222,11111222,11144222' 
ADCP,ioos:station:wmo:42361:1,2016-09-01T05:30:00Z,27.5500,-92.4900,122.0,7.7,12.0,99.0,'11111222,11111222,11144222' 
ADCP,ioos:station:wmo:42361:1,2016-09-01T06:30:00Z,27.5500,-92.4900,122.0,7.0,358.0,99.0,'11111222,11111222,11144222' 
ADCP,ioos:station:wmo:42361:1,2016-09-01T07:30:00Z,27.5500,-92.4900,122.0,6.5,346.0,99.0,'11111222,11111222,11144222' 
ADCP,ioos:station:wmo:42361:1,2016-09-01T08:30:00Z,27.5500,-92.4900,122.0,6.6,341.0,99.0,'11111222,11111222,11144222' 
ADCP,ioos:station:wmo:42361:1,2016-09-01T09:30:00Z,27.5500,-92.4900,122.0,6.5,336.0,99.0,'11111222,11111222,11144222' 
ADCP,ioos:station:wmo:42361:1,2016-09-01T10:30:00Z,27.5500,-92.4900,122.0,5.1,332.0,99.0,'11111222,11111222,11144222' 
ADCP,ioos:station:wmo:42361:1,2016-09-01T11:30:00Z,27.5500,-92.4900,122.0,4.2,320.0,99.0,'11111222,11111222,11144222' 
ADCP,ioos:station:wmo:42361:1,2016-09-01T12:30:00Z,27.5500,-92.4900,122.0,5.8,328.0,99.0,'11111222,11111222,11144222' 
ADCP,ioos:station:wmo:42361:1,2016-09-01T13:30:00Z,27.5500,-92.4900,122.0,7.9,331.0,99.0,'11111222,11111222,11144222' 
ADCP,ioos:station:wmo:42361:1,2016-09-01T14:30:00Z,27.5500,-92.4900,122.0,7.9,337.0,99.0,'11111222,11111222,11144222' 
ADCP,ioos:station:wmo:42361:1,2016-09-01T15:30:00Z,27.5500,-92.4900,122.0,7.4,344.0,99.0,'11111222,11111222,11144222' 
ADCP,ioos:station:wmo:42361:1,2016-09-01T16:30:00Z,27.5500,-92.4900,122.0,7.8,346.0,99.0,'11111222,11111222,11144222' 
ADCP,ioos:station:wmo:42361:1,2016-09-01T17:30:00Z,27.5500,-92.4900,122.0,7.7,341.0,99.0,'11111222,11111222,11144222' 
ADCP,ioos:station:wmo:42361:1,2016-09-01T18:30:00Z,27.5500,-92.4900,122.0,8.0,343.0,99.0,'11111222,11111222,11144222' 
ADCP,ioos:station:wmo:42361:1,2016-09-01T19:30:00Z,27.5500,-92.4900,122.0,7.6,343.0,99.0,'11111222,11111222,11144222' 
ADCP,ioos:station:wmo:42361:1,2016-09-01T20:30:00Z,27.5500,-92.4900,122.0,7.3,340.0,99.0,'11111222,11111222,11144222' 
ADCP,ioos:station:wmo:42361:1,2016-09-01T21:30:00Z,27.5500,-92.4900,122.0,7.0,334.0,99.0,'11111222,11111222,11144222' 
ADCP,ioos:station:wmo:42361:1,2016-09-01T22:30:00Z,27.5500,-92.4900,122.0,7.2,331.0,99.0,'11111222,11111222,11144222' 
ADCP,ioos:station:wmo:42361:1,2016-09-01T23:30:00Z,27.5500,-92.4900,122.0,7.0,338.0,99.0,'11111222,11111222,11144222' 
ADCP,ioos:station:wmo:42361:1,2016-09-02T00:30:00Z,27.5500,-92.4900,122.0,6.3,340.0,99.0,'11111222,11111222,11144222' 
ADCP,ioos:station:wmo:42361:1,2016-09-02T01:30:00Z,27.5500,-92.4900,122.0,5.5,338.0,99.0,'11111222,11111222,11144222' 
ADCP,ioos:station:wmo:42361:1,2016-09-02T02:30:00Z,27.5500,-92.4900,122.0,4.7,326.0,99.0,'11111222,11111222,11144222' 
ADCP,ioos:station:wmo:42361:1,2016-09-02T03:30:00Z,27.5500,-92.4900,122.0,5.1,311.0,99.0,'11111222,11111222,11144222' 
ADCP,ioos:station:wmo:42361:1,2016-09-02T04:30:00Z,27.5500,-92.4900,122.0,4.6,305.0,99.0,'11111222,11111222,11144222' 
ADCP,ioos:station:wmo:42361:1,2016-09-02T05:30:00Z,27.5500,-92.4900,122.0,2.7,307.0,99.0,'11111222,11111222,11144222' 
ADCP,ioos:station:wmo:42361:1,2016-09-02T06:30:00Z,27.5500,-92.4900,122.0,2.9,288.0,99.0,'11111222,11111222,11144222' 
ADCP,ioos:station:wmo:42361:1,2016-09-02T07:30:00Z,27.5500,-92.4900,122.0,3.4,288.0,99.0,'11111222,11111222,11144222' 
ADCP,ioos:station:wmo:42361:1,2016-09-02T08:30:00Z,27.5500,-92.4900,122.0,3.7,276.0,99.0,'11111222,11111222,11144222' 
ADCP,ioos:station:wmo:42361:1,2016-09-02T09:30:00Z,27.5500,-92.4900,122.0,3.9,275.0,99.0,'11111222,11111222,11144222' 
ADCP,ioos:station:wmo:42361:1,2016-09-02T10:30:00Z,27.5500,-92.4900,122.0,3.8,293.0,99.0,'11111222,11111222,11144222' 
ADCP,ioos:station:wmo:42361:1,2016-09-02T11:30:00Z,27.5500,-92.4900,122.0,4.0,339.0,99.0,'11111222,11111222,11144222' 
ADCP,ioos:station:wmo:42361:1,2016-09-02T12:30:00Z,27.5500,-92.4900,122.0,5.7,354.0,99.0,'11111222,11111222,11144222' 
ADCP,ioos:station:wmo:42361:1,2016-09-02T13:30:00Z,27.5500,-92.4900,122.0,4.3,16.0,99.0,'11111222,11111222,11144222' 
ADCP,ioos:station:wmo:42361:1,2016-09-02T14:30:00Z,27.5500,-92.4900,122.0,3.6,10.0,99.0,'11111222,11111222,11144222' 
ADCP,ioos:station:wmo:42361:1,2016-09-02T15:30:00Z,27.5500,-92.4900,122.0,4.1,357.0,99.0,'11111222,11111222,11144222' 
ADCP,ioos:station:wmo:42361:1,2016-09-02T16:30:00Z,27.5500,-92.4900,122.0,4.7,17.0,99.0,'11111222,11111222,11144222' 
ADCP,ioos:station:wmo:42361:1,2016-09-02T17:30:00Z,27.5500,-92.4900,122.0,3.5,23.0,99.0,'11111222,11111222,11144222' 
ADCP,ioos:station:wmo:42361:1,2016-09-02T18:30:00Z,27.5500,-92.4900,122.0,2.5,22.0,99.0,'11111222,11111222,11144222' 
ADCP,ioos:station:wmo:42361:1,2016-09-02T19:30:00Z,27.5500,-92.4900,122.0,1.7,13.0,99.0,'11111222,11111222,11144222' 
ADCP,ioos:station:wmo:42361:1,2016-09-02T20:30:00Z,27.5500,-92.4900,122.0,3.4,339.0,99.0,'11111222,11111222,11144222' 
ADCP,ioos:station:wmo:42361:1,2016-09-02T21:30:00Z,27.5500,-92.4900,122.0,4.4,351.0,99.0,'11111222,11111222,11144222' 
ADCP,ioos:station:wmo:42361:1,2016-09-02T22:30:00Z,27.5500,-92.4900,122.0,4.6,353.0,99.0,'11111222,11111222,11144222' 
ADCP,ioos:station:wmo:42361:1,2016-09-02T23:30:00Z,27.5500,-92.4900,122.0,4.4,5.0,99.0,'11111222,11111222,11144222' 
ADCP,ioos:station:wmo:42361:1,2016-09-03T00:30:00Z,27.5500,-92.4900,122.0,3.8,12.0,99.0,'11111222,11111222,11144222' 
ADCP,ioos:station:wmo:42361:1,2016-09-03T01:30:00Z,27.5500,-92.4900,122.0,4.1,5.0,99.0,'11111222,11111222,11144222' 
ADCP,ioos:station:wmo:42361:1,2016-09-03T02:30:00Z,27.5500,-92.4900,122.0,4.6,9.0,99.0,'11111222,11111222,11144222' 
ADCP,ioos:station:wmo:42361:1,2016-09-03T03:30:00Z,27.5500,-92.4900,122.0,4.9,20.0,99.0,'11111222,11111222,11144222' 
ADCP,ioos:station:wmo:42361:1,2016-09-03T04:30:00Z,27.5500,-92.4900,122.0,4.3,30.0,99.0,'11111222,11111222,11144222' 
ADCP,ioos:station:wmo:42361:1,2016-09-03T05:30:00Z,27.5500,-92.4900,122.0,4.2,33.0,99.0,'11111222,11111222,11144222' 
ADCP,ioos:station:wmo:42361:1,2016-09-03T06:30:00Z,27.5500,-92.4900,122.0,4.2,34.0,99.0,'11111222,11111222,11144222' 
ADCP,ioos:station:wmo:42361:1,2016-09-03T07:30:00Z,27.5500,-92.4900,122.0,3.8,50.0,99.0,'11111222,11111222,11144222' 
ADCP,ioos:station:wmo:42361:1,2016-09-03T08:30:00Z,27.5500,-92.4900,122.0,3.6,52.0,99.0,'11111222,11111222,11144222' 
ADCP,ioos:station:wmo:42361:1,2016-09-03T09:30:00Z,27.5500,-92.4900,122.0,2.3,73.0,99.0,'11111222,11111222,11144222' 
ADCP,ioos:station:wmo:42361:1,2016-09-03T10:30:00Z,27.5500,-92.4900,122.0,2.5,85.0,99.0,'11111222,11111222,11144222' 
ADCP,ioos:station:wmo:42361:1,2016-09-03T11:30:00Z,27.5500,-92.4900,122.0,2.0,95.0,99.0,'11111222,11111222,11144222' 
ADCP,ioos:station:wmo:42361:1,2016-09-03T12:30:00Z,27.5500,-92.4900,122.0,1.7,66.0,99.0,'11111222,11111222,11144222' 
ADCP,ioos:station:wmo:42361:1,2016-09-03T13:30:00Z,27.5500,-92.4900,122.0,2.1,70.0,99.0,'11111222,11111222,11144222' 
ADCP,ioos:station:wmo:42361:1,2016-09-03T14:30:00Z,27.5500,-92.4900,122.0,2.5,43.0,99.0,'11111222,11111222,11144222' 
ADCP,ioos:station:wmo:42361:1,2016-09-03T15:30:00Z,27.5500,-92.4900,122.0,3.0,41.0,99.0,'11111222,11111222,11144222' 
ADCP,ioos:station:wmo:42361:1,2016-09-03T16:30:00Z,27.5500,-92.4900,122.0,4.2,74.0,99.0,'11111222,11111222,11144222' 
ADCP,ioos:station:wmo:42361:1,2016-09-03T17:30:00Z,27.5500,-92.4900,122.0,3.9,88.0,99.0,'11111222,11111222,11144222' 
ADCP,ioos:station:wmo:42361:1,2016-09-03T18:30:00Z,27.5500,-92.4900,122.0,4.6,103.0,99.0,'11111222,11111222,11144222' 
ADCP,ioos:station:wmo:42361:1,2016-09-03T19:30:00Z,27.5500,-92.4900,122.0,4.2,116.0,99.0,'11111222,11111222,11144222' 
ADCP,ioos:station:wmo:42361:1,2016-09-03T20:30:00Z,27.5500,-92.4900,122.0,5.3,135.0,99.0,'11111222,11111222,11144222' 
ADCP,ioos:station:wmo:42361:1,2016-09-03T21:30:00Z,27.5500,-92.4900,122.0,5.7,147.0,99.0,'11111222,11111222,11144222' 
ADCP,ioos:station:wmo:42361:1,2016-09-03T22:30:00Z,27.5500,-92.4900,122.0,4.5,169.0,99.0,'11111222,11111222,11144222' 
ADCP,ioos:station:wmo:42361:1,2016-09-03T23:30:00Z,27.5500,-92.4900,122.0,4.1,162.0,99.0,'11111222,11111222,11144222' 
ADCP,ioos:station:wmo:42361:1,2016-09-04T00:30:00Z,27.5500,-92.4900,122.0,3.5,162.0,99.0,'11111222,11111222,11144222' 
ADCP,ioos:station:wmo:42361:1,2016-09-04T01:30:00Z,27.5500,-92.4900,122.0,6.2,125.0,99.0,'11111222,11111222,11144222' 
ADCP,ioos:station:wmo:42361:1,2016-09-04T02:30:00Z,27.5500,-92.4900,122.0,4.1,149.0,99.0,'11111222,11111222,11144222' 
ADCP,ioos:station:wmo:42361:1,2016-09-04T03:30:00Z,27.5500,-92.4900,122.0,3.6,114.0,99.0,'11111222,11111222,11144222' 
ADCP,ioos:station:wmo:42361:1,2016-09-04T04:30:00Z,27.5500,-92.4900,122.0,3.1,75.0,99.0,'11111222,11111222,11144222' 
ADCP,ioos:station:wmo:42361:1,2016-09-04T05:30:00Z,27.5500,-92.4900,122.0,4.7,100.0,99.0,'11111222,11111222,11144222' 
ADCP,ioos:station:wmo:42361:1,2016-09-04T06:30:00Z,27.5500,-92.4900,122.0,6.8,132.0,99.0,'11111222,11111222,11144222' 
ADCP,ioos:station:wmo:42361:1,2016-09-04T07:30:00Z,27.5500,-92.4900,122.0,7.3,141.0,99.0,'11111222,11111222,11144222' 
ADCP,ioos:station:wmo:42361:1,2016-09-04T08:30:00Z,27.5500,-92.4900,122.0,7.1,141.0,99.0,'11111222,11111222,11144222' 
ADCP,ioos:station:wmo:42361:1,2016-09-04T09:30:00Z,27.5500,-92.4900,122.0,7.0,157.0,99.0,'11111222,11111222,11144222' 
ADCP,ioos:station:wmo:42361:1,2016-09-04T10:30:00Z,27.5500,-92.4900,122.0,4.6,160.0,99.0,'11111222,11111222,11144222' 
ADCP,ioos:station:wmo:42361:1,2016-09-04T11:30:00Z,27.5500,-92.4900,122.0,5.6,142.0,99.0,'11111222,11111222,11144222' 
ADCP,ioos:station:wmo:42361:1,2016-09-04T12:30:00Z,27.5500,-92.4900,122.0,4.8,146.0,99.0,'11111222,11111222,11144222' 
ADCP,ioos:station:wmo:42361:1,2016-09-04T13:30:00Z,27.5500,-92.4900,122.0,5.2,126.0,99.0,'11111222,11111222,11144222' 
ADCP,ioos:station:wmo:42361:1,2016-09-04T14:30:00Z,27.5500,-92.4900,122.0,4.8,113.0,99.0,'11111222,11111222,11144222' 
ADCP,ioos:station:wmo:42361:1,2016-09-04T15:30:00Z,27.5500,-92.4900,122.0,5.4,113.0,99.0,'11111222,11111222,11144222' 
ADCP,ioos:station:wmo:42361:1,2016-09-04T16:30:00Z,27.5500,-92.4900,122.0,5.0,118.0,99.0,'11111222,11111222,11144222' 
ADCP,ioos:station:wmo:42361:1,2016-09-04T17:30:00Z,27.5500,-92.4900,122.0,4.3,123.0,99.0,'11111222,11111222,11144222' 
ADCP,ioos:station:wmo:42361:1,2016-09-04T18:30:00Z,27.5500,-92.4900,122.0,3.9,128.0,99.0,'11111222,11111222,11144222' 
ADCP,ioos:station:wmo:42361:1,2016-09-04T19:30:00Z,27.5500,-92.4900,122.0,4.5,123.0,99.0,'11111222,11111222,11144222' 
ADCP,ioos:station:wmo:42361:1,2016-09-04T20:30:00Z,27.5500,-92.4900,122.0,5.4,114.0,99.0,'11111222,11111222,11144222' 
ADCP,ioos:station:wmo:42361:1,2016-09-04T21:30:00Z,27.5500,-92.4900,122.0,6.5,125.0,99.0,'11111222,11111222,11144222' 
ADCP,ioos:station:wmo:42361:1,2016-09-04T22:30:00Z,27.5500,-92.4900,122.0,8.7,141.0,99.0,'11111222,11111222,11144222' 
ADCP,ioos:station:wmo:42361:1,2016-09-04T23:30:00Z,27.5500,-92.4900,122.0,6.2,155.0,99.0,'11111222,11111222,11144222' 
ADCP,ioos:station:wmo:42361:1,2016-09-05T00:30:00Z,27.5500,-92.4900,122.0,4.1,126.0,99.0,'11111222,11111222,11144222' 
ADCP,ioos:station:wmo:42361:1,2016-09-05T01:30:00Z,27.5500,-92.4900,122.0,5.4,116.0,99.0,'11111222,11111222,11144222' 
ADCP,ioos:station:wmo:42361:1,2016-09-05T02:30:00Z,27.5500,-92.4900,122.0,4.3,113.0,99.0,'11111222,11111222,11144222' 
ADCP,ioos:station:wmo:42361:1,2016-09-05T03:30:00Z,27.5500,-92.4900,122.0,4.5,130.0,99.0,'11111222,11111222,11144222' 
ADCP,ioos:station:wmo:42361:1,2016-09-05T04:30:00Z,27.5500,-92.4900,122.0,4.8,124.0,99.0,'11111222,11111222,11144222' 
ADCP,ioos:station:wmo:42361:1,2016-09-05T05:30:00Z,27.5500,-92.4900,122.0,5.5,118.0,99.0,'11111222,11111222,11144222' 
ADCP,ioos:station:wmo:42361:1,2016-09-05T06:30:00Z,27.5500,-92.4900,122.0,6.4,117.0,99.0,'11111222,11111222,11144222' 
ADCP,ioos:station:wmo:42361:1,2016-09-05T07:30:00Z,27.5500,-92.4900,122.0,7.3,117.0,99.0,'11111222,11111222,11144222' 
ADCP,ioos:station:wmo:42361:1,2016-09-05T08:30:00Z,27.5500,-92.4900,122.0,6.9,120.0,99.0,'11111222,11111222,11144222' 
ADCP,ioos:station:wmo:42361:1,2016-09-05T09:30:00Z,27.5500,-92.4900,122.0,6.6,117.0,99.0,'11111222,11111222,11144222' 
ADCP,ioos:station:wmo:42361:1,2016-09-05T10:30:00Z,27.5500,-92.4900,122.0,6.7,121.0,99.0,'11111222,11111222,11144222' 
ADCP,ioos:station:wmo:42361:1,2016-09-05T11:30:00Z,27.5500,-92.4900,122.0,7.2,131.0,99.0,'11111222,11111222,11144222' 
ADCP,ioos:station:wmo:42361:1,2016-09-05T12:30:00Z,27.5500,-92.4900,122.0,5.6,138.0,99.0,'11111222,11111222,11144222' 
ADCP,ioos:station:wmo:42361:1,2016-09-05T13:30:00Z,27.5500,-92.4900,122.0,7.2,145.0,99.0,'11111222,11111222,11144222' 
ADCP,ioos:station:wmo:42361:1,2016-09-05T14:30:00Z,27.5500,-92.4900,122.0,5.7,106.0,99.0,'11111222,11111222,11144222' 
ADCP,ioos:station:wmo:42361:1,2016-09-05T15:30:00Z,27.5500,-92.4900,122.0,5.0,108.0,99.0,'11111222,11111222,11144222' 
ADCP,ioos:station:wmo:42361:1,2016-09-05T16:30:00Z,27.5500,-92.4900,122.0,7.6,112.0,99.0,'11111222,11111222,11144222' 
ADCP,ioos:station:wmo:42361:1,2016-09-05T17:30:00Z,27.5500,-92.4900,122.0,5.9,124.0,99.0,'11111222,11111222,11144222' 
ADCP,ioos:station:wmo:42361:1,2016-09-05T18:30:00Z,27.5500,-92.4900,122.0,6.3,120.0,99.0,'11111222,11111222,11144222' 
ADCP,ioos:station:wmo:42361:1,2016-09-05T19:30:00Z,27.5500,-92.4900,122.0,4.9,105.0,99.0,'11111222,11111222,11144222' 
ADCP,ioos:station:wmo:42361:1,2016-09-05T20:30:00Z,27.5500,-92.4900,122.0,6.5,107.0,99.0,'11111222,11111222,11144222' 
ADCP,ioos:station:wmo:42361:1,2016-09-05T21:30:00Z,27.5500,-92.4900,122.0,6.2,103.0,99.0,'11111222,11111222,11144222' 
ADCP,ioos:station:wmo:42361:1,2016-09-05T22:30:00Z,27.5500,-92.4900,122.0,6.3,100.0,99.0,'11111222,11111222,11144222' 
ADCP,ioos:station:wmo:42361:1,2016-09-05T23:30:00Z,27.5500,-92.4900,122.0,6.7,95.0,99.0,'11111222,11111222,11144222' 
ADCP,ioos:station:wmo:42361:1,2016-09-06T00:30:00Z,27.5500,-92.4900,122.0,6.9,97.0,99.0,'11111222,11111222,11144222' 
ADCP,ioos:station:wmo:42361:1,2016-09-06T01:30:00Z,27.5500,-92.4900,122.0,7.2,100.0,99.0,'11111222,11111222,11144222' 
ADCP,ioos:station:wmo:42361:1,2016-09-06T02:30:00Z,27.5500,-92.4900,122.0,7.0,100.0,99.0,'11111222,11111222,11144222' 
ADCP,ioos:station:wmo:42361:1,2016-09-06T03:30:00Z,27.5500,-92.4900,122.0,7.2,96.0,99.0,'11111222,11111222,11144222' 
ADCP,ioos:station:wmo:42361:1,2016-09-06T04:30:00Z,27.5500,-92.4900,122.0,7.2,96.0,99.0,'11111222,11111222,11144222' 
ADCP,ioos:station:wmo:42361:1,2016-09-06T05:30:00Z,27.5500,-92.4900,122.0,7.6,95.0,99.0,'11111222,11111222,11144222' 
ADCP,ioos:station:wmo:42361:1,2016-09-06T06:30:00Z,27.5500,-92.4900,122.0,8.1,96.0,99.0,'11111222,11111222,11144222' 
ADCP,ioos:station:wmo:42361:1,2016-09-06T07:30:00Z,27.5500,-92.4900,122.0,8.0,98.0,99.0,'11111222,11111222,11144222' 
ADCP,ioos:station:wmo:42361:1,2016-09-06T08:30:00Z,27.5500,-92.4900,122.0,7.9,104.0,99.0,'11111222,11111222,11144222' 
ADCP,ioos:station:wmo:42361:1,2016-09-06T09:30:00Z,27.5500,-92.4900,122.0,7.0,105.0,99.0,'11111222,11111222,11144222' 
ADCP,ioos:station:wmo:42361:1,2016-09-06T10:30:00Z,27.5500,-92.4900,122.0,7.2,107.0,99.0,'11111222,11111222,11144222' 
ADCP,ioos:station:wmo:42361:1,2016-09-06T11:30:00Z,27.5500,-92.4900,122.0,5.6,116.0,99.0,'11111222,11111222,11144222' 
ADCP,ioos:station:wmo:42361:1,2016-09-06T12:30:00Z,27.5500,-92.4900,122.0,6.3,119.0,99.0,'11111222,11111222,11144222' 
ADCP,ioos:station:wmo:42361:1,2016-09-06T13:30:00Z,27.5500,-92.4900,122.0,6.0,128.0,99.0,'11111222,11111222,11144222' 
ADCP,ioos:station:wmo:42361:1,2016-09-06T14:30:00Z,27.5500,-92.4900,122.0,5.7,119.0,99.0,'11111222,11111222,11144222' 
ADCP,ioos:station:wmo:42361:1,2016-09-06T15:30:00Z,27.5500,-92.4900,122.0,4.8,117.0,99.0,'11111222,11111222,11144222' 
ADCP,ioos:station:wmo:42361:1,2016-09-06T16:30:00Z,27.5500,-92.4900,122.0,4.0,110.0,99.0,'11111222,11111222,11144222' 
ADCP,ioos:station:wmo:42361:1,2016-09-06T17:30:00Z,27.5500,-92.4900,122.0,3.4,101.0,99.0,'11111222,11111222,11144222' 
ADCP,ioos:station:wmo:42361:1,2016-09-06T18:30:00Z,27.5500,-92.4900,122.0,4.1,101.0,99.0,'11111222,11111222,11144222' 
ADCP,ioos:station:wmo:42361:1,2016-09-06T19:30:00Z,27.5500,-92.4900,122.0,3.9,93.0,99.0,'11111222,11111222,11144222' 
ADCP,ioos:station:wmo:42361:1,2016-09-06T20:30:00Z,27.5500,-92.4900,122.0,3.6,87.0,99.0,'11111222,11111222,11144222' 
ADCP,ioos:station:wmo:42361:1,2016-09-06T21:30:00Z,27.5500,-92.4900,122.0,3.6,87.0,99.0,'11111222,11111222,11144222' 
ADCP,ioos:station:wmo:42361:1,2016-09-06T22:30:00Z,27.5500,-92.4900,122.0,3.5,79.0,99.0,'11111222,11111222,11144222' 
ADCP,ioos:station:wmo:42361:1,2016-09-06T23:30:00Z,27.5500,-92.4900,122.0,3.6,81.0,99.0,'11111222,11111222,11144222' 
ADCP,ioos:station:wmo:42361:1,2016-09-07T00:30:00Z,27.5500,-92.4900,122.0,4.4,80.0,99.0,'11111222,11111222,11144222' 
ADCP,ioos:station:wmo:42361:1,2016-09-07T01:30:00Z,27.5500,-92.4900,122.0,4.1,80.0,99.0,'11111222,11111222,11144222' 
ADCP,ioos:station:wmo:42361:1,2016-09-07T02:30:00Z,27.5500,-92.4900,122.0,4.7,75.0,99.0,'11111222,11111222,11144222' 
ADCP,ioos:station:wmo:42361:1,2016-09-07T03:30:00Z,27.5500,-92.4900,122.0,5.2,73.0,99.0,'11111222,11111222,11144222' 
ADCP,ioos:station:wmo:42361:1,2016-09-07T04:30:00Z,27.5500,-92.4900,122.0,5.7,82.0,99.0,'11111222,11111222,11144222' 
ADCP,ioos:station:wmo:42361:1,2016-09-07T05:30:00Z,27.5500,-92.4900,122.0,5.6,87.0,99.0,'11111222,11111222,11144222' 
ADCP,ioos:station:wmo:42361:1,2016-09-07T06:30:00Z,27.5500,-92.4900,122.0,5.8,80.0,99.0,'11111222,11111222,11144222' 
ADCP,ioos:station:wmo:42361:1,2016-09-07T07:30:00Z,27.5500,-92.4900,122.0,5.0,86.0,99.0,'11111222,11111222,11144222' 
ADCP,ioos:station:wmo:42361:1,2016-09-07T08:30:00Z,27.5500,-92.4900,122.0,4.1,103.0,99.0,'11111222,11111222,11144222' 
ADCP,ioos:station:wmo:42361:1,2016-09-07T09:30:00Z,27.5500,-92.4900,122.0,3.8,117.0,99.0,'11111222,11111222,11144222' 
ADCP,ioos:station:wmo:42361:1,2016-09-07T10:30:00Z,27.5500,-92.4900,122.0,3.2,122.0,99.0,'11111222,11111222,11144222' 
ADCP,ioos:station:wmo:42361:1,2016-09-07T11:30:00Z,27.5500,-92.4900,122.0,3.0,123.0,99.0,'11111222,11111222,11144222' 
ADCP,ioos:station:wmo:42361:1,2016-09-07T12:30:00Z,27.5500,-92.4900,122.0,2.4,123.0,99.0,'11111222,11111222,11144222' 
ADCP,ioos:station:wmo:42361:1,2016-09-07T13:30:00Z,27.5500,-92.4900,122.0,2.1,126.0,99.0,'11111222,11111222,11144222' 
ADCP,ioos:station:wmo:42361:1,2016-09-07T14:30:00Z,27.5500,-92.4900,122.0,1.8,129.0,99.0,'11111222,11111222,11144222' 
ADCP,ioos:station:wmo:42361:1,2016-09-07T15:30:00Z,27.5500,-92.4900,122.0,2.1,116.0,99.0,'11111222,11111222,11144222' 
ADCP,ioos:station:wmo:42361:1,2016-09-07T16:30:00Z,27.5500,-92.4900,122.0,1.5,82.0,99.0,'11111222,11111222,11144222' 
ADCP,ioos:station:wmo:42361:1,2016-09-07T17:30:00Z,27.5500,-92.4900,122.0,0.1,7.0,99.0,'11111222,11111222,11144222' 
ADCP,ioos:station:wmo:42361:1,2016-09-07T18:30:00Z,27.5500,-92.4900,122.0,0.1,6.0,99.0,'11111222,11111222,11144222' 
ADCP,ioos:station:wmo:42361:1,2016-09-07T19:30:00Z,27.5500,-92.4900,122.0,2.0,28.0,99.0,'11111222,11111222,11144222' 
ADCP,ioos:station:wmo:42361:1,2016-09-07T20:30:00Z,27.5500,-92.4900,122.0,2.4,40.0,99.0,'11111222,11111222,11144222' 
ADCP,ioos:station:wmo:42361:1,2016-09-07T21:30:00Z,27.5500,-92.4900,122.0,3.0,48.0,99.0,'11111222,11111222,11144222' 
ADCP,ioos:station:wmo:42361:1,2016-09-07T22:30:00Z,27.5500,-92.4900,122.0,3.5,50.0,99.0,'11111222,11111222,11144222' 
ADCP,ioos:station:wmo:42361:1,2016-09-07T23:30:00Z,27.5500,-92.4900,122.0,3.6,54.0,99.0,'11111222,11111222,11144222' 
ADCP,ioos:station:wmo:42361:1,2016-09-08T00:30:00Z,27.5500,-92.4900,122.0,3.9,53.0,99.0,'11111222,11111222,11144222' 
ADCP,ioos:station:wmo:42361:1,2016-09-08T01:30:00Z,27.5500,-92.4900,122.0,4.4,63.0,99.0,'11111222,11111222,11144222' 
ADCP,ioos:station:wmo:42361:1,2016-09-08T02:30:00Z,27.5500,-92.4900,122.0,5.1,64.0,99.0,'11111222,11111222,11144222' 
ADCP,ioos:station:wmo:42361:1,2016-09-08T03:30:00Z,27.5500,-92.4900,122.0,5.5,70.0,99.0,'11111222,11111222,11144222' 
ADCP,ioos:station:wmo:42361:1,2016-09-08T04:30:00Z,27.5500,-92.4900,122.0,5.3,71.0,99.0,'11111222,11111222,11144222' 
ADCP,ioos:station:wmo:42361:1,2016-09-08T05:30:00Z,27.5500,-92.4900,122.0,4.8,82.0,99.0,'11111222,11111222,11144222' 
ADCP,ioos:station:wmo:42361:1,2016-09-08T06:30:00Z,27.5500,-92.4900,122.0,4.8,86.0,99.0,'11111222,11111222,11144222' 
ADCP,ioos:station:wmo:42361:1,2016-09-08T07:30:00Z,27.5500,-92.4900,122.0,4.1,83.0,99.0,'11111222,11111222,11144222' 
ADCP,ioos:station:wmo:42361:1,2016-09-08T08:30:00Z,27.5500,-92.4900,122.0,2.7,95.0,99.0,'11111222,11111222,11144222' 
ADCP,ioos:station:wmo:42361:1,2016-09-08T09:30:00Z,27.5500,-92.4900,122.0,3.2,111.0,99.0,'11111222,11111222,11144222' 
ADCP,ioos:station:wmo:42361:1,2016-09-08T10:30:00Z,27.5500,-92.4900,122.0,0.8,37.0,99.0,'11111222,11111222,11144222' 
ADCP,ioos:station:wmo:42361:1,2016-09-08T11:30:00Z,27.5500,-92.4900,122.0,0.8,360.0,99.0,'11111222,11144222,11144222' 
ADCP,ioos:station:wmo:42361:1,2016-09-08T12:30:00Z,27.5500,-92.4900,122.0,1.7,14.0,99.0,'11111222,11111222,11144222' 
ADCP,ioos:station:wmo:42361:1,2016-09-08T13:30:00Z,27.5500,-92.4900,122.0,1.7,78.0,99.0,'11111222,11111222,11144222' 
ADCP,ioos:station:wmo:42361:1,2016-09-08T14:30:00Z,27.5500,-92.4900,122.0,1.3,62.0,99.0,'11111222,11111222,11144222' 
ADCP,ioos:station:wmo:42361:1,2016-09-08T15:30:00Z,27.5500,-92.4900,122.0,2.5,63.0,99.0,'11111222,11111222,11144222' 
ADCP,ioos:station:wmo:42361:1,2016-09-08T16:30:00Z,27.5500,-92.4900,122.0,2.9,63.0,99.0,'11111222,11111222,11144222' 
ADCP,ioos:station:wmo:42361:1,2016-09-08T17:30:00Z,27.5500,-92.4900,122.0,4.3,59.0,99.0,'11111222,11111222,11144222' 
ADCP,ioos:station:wmo:42361:1,2016-09-08T18:30:00Z,27.5500,-92.4900,122.0,4.9,57.0,99.0,'11111222,11111222,11144222' 
ADCP,ioos:station:wmo:42361:1,2016-09-08T19:30:00Z,27.5500,-92.4900,122.0,5.5,66.0,99.0,'11111222,11111222,11144222' 
ADCP,ioos:station:wmo:42361:1,2016-09-08T20:30:00Z,27.5500,-92.4900,122.0,5.4,65.0,99.0,'11111222,11111222,11144222' 
ADCP,ioos:station:wmo:42361:1,2016-09-08T21:30:00Z,27.5500,-92.4900,122.0,5.9,60.0,99.0,'11111222,11111222,11144222' 
ADCP,ioos:station:wmo:42361:1,2016-09-08T22:30:00Z,27.5500,-92.4900,122.0,5.8,62.0,99.0,'11111222,11111222,11144222' 
ADCP,ioos:station:wmo:42361:1,2016-09-08T23:30:00Z,27.5500,-92.4900,122.0,5.5,60.0,99.0,'11111222,11111222,11144222' 
ADCP,ioos:station:wmo:42361:1,2016-09-09T00:30:00Z,27.5500,-92.4900,122.0,6.2,78.0,99.0,'11111222,11111222,11144222' 
ADCP,ioos:station:wmo:42361:1,2016-09-09T01:30:00Z,27.5500,-92.4900,122.0,5.9,88.0,99.0,'11111222,11111222,11144222' 
ADCP,ioos:station:wmo:42361:1,2016-09-09T02:30:00Z,27.5500,-92.4900,122.0,5.7,86.0,99.0,'11111222,11111222,11144222' 
ADCP,ioos:station:wmo:42361:1,2016-09-09T03:30:00Z,27.5500,-92.4900,122.0,6.4,91.0,99.0,'11111222,11111222,11144222' 
ADCP,ioos:station:wmo:42361:1,2016-09-09T04:30:00Z,27.5500,-92.4900,122.0,6.0,94.0,99.0,'11111222,11111222,11144222' 
ADCP,ioos:station:wmo:42361:1,2016-09-09T05:30:00Z,27.5500,-92.4900,122.0,5.8,104.0,99.0,'11111222,11111222,11144222' 
ADCP,ioos:station:wmo:42361:1,2016-09-09T06:30:00Z,27.5500,-92.4900,122.0,4.4,116.0,99.0,'11111222,11111222,11144222' 
ADCP,ioos:station:wmo:42361:1,2016-09-09T07:30:00Z,27.5500,-92.4900,122.0,4.0,117.0,99.0,'11111222,11111222,11144222' 
ADCP,ioos:station:wmo:42361:1,2016-09-09T08:30:00Z,27.5500,-92.4900,122.0,4.9,115.0,99.0,'11111222,11111222,11144222' 